owner,sensor,date,latitude,longitude,vertical_datum,mass_concentration_of_oxygen_in_sea_water,qcFlag 
NERRS,ioos:station:NOAA.NERRS:rkblhwq:1,2017-10-01T00:45:00Z,26.0257,-81.7332,1.28,4.1,1111122 
NERRS,ioos:station:NOAA.NERRS:rkblhwq:1,2017-10-01T01:45:00Z,26.0257,-81.7332,1.4,4.3,1111122 
NERRS,ioos:station:NOAA.NERRS:rkblhwq:1,2017-10-01T02:45:00Z,26.0257,-81.7332,1.5,3.6,1111122 
NERRS,ioos:station:NOAA.NERRS:rkblhwq:1,2017-10-01T03:45:00Z,26.0257,-81.7332,1.55,2.9,1111122 
NERRS,ioos:station:NOAA.NERRS:rkblhwq:1,2017-10-01T04:45:00Z,26.0257,-81.7332,1.52,3.6,1111122 
NERRS,ioos:station:NOAA.NERRS:rkblhwq:1,2017-10-01T05:45:00Z,26.0257,-81.7332,1.45,3.1,1111122 
NERRS,ioos:station:NOAA.NERRS:rkblhwq:1,2017-10-01T06:45:00Z,26.0257,-81.7332,1.33,3.4,1111122 
NERRS,ioos:station:NOAA.NERRS:rkblhwq:1,2017-10-01T07:45:00Z,26.0257,-81.7332,1.23,2.8,1111122 
NERRS,ioos:station:NOAA.NERRS:rkblhwq:1,2017-10-01T08:45:00Z,26.0257,-81.7332,1.17,2.4,1111122 
NERRS,ioos:station:NOAA.NERRS:rkblhwq:1,2017-10-01T09:45:00Z,26.0257,-81.7332,1.13,2.3,1111122 
NERRS,ioos:station:NOAA.NERRS:rkblhwq:1,2017-10-01T10:45:00Z,26.0257,-81.7332,1.21,2.5,1111122 
NERRS,ioos:station:NOAA.NERRS:rkblhwq:1,2017-10-01T11:45:00Z,26.0257,-81.7332,1.32,3.1,1111122 
NERRS,ioos:station:NOAA.NERRS:rkblhwq:1,2017-10-01T12:45:00Z,26.0257,-81.7332,1.42,2.3,1111122 
NERRS,ioos:station:NOAA.NERRS:rkblhwq:1,2017-10-01T13:45:00Z,26.0257,-81.7332,1.51,2.8,1111122 
NERRS,ioos:station:NOAA.NERRS:rkblhwq:1,2017-10-01T14:45:00Z,26.0257,-81.7332,1.57,2.4,1111122 
NERRS,ioos:station:NOAA.NERRS:rkblhwq:1,2017-10-01T15:45:00Z,26.0257,-81.7332,1.56,2.2,1111122 
NERRS,ioos:station:NOAA.NERRS:rkblhwq:1,2017-10-01T16:45:00Z,26.0257,-81.7332,1.51,2.4,1111122 
NERRS,ioos:station:NOAA.NERRS:rkblhwq:1,2017-10-01T17:45:00Z,26.0257,-81.7332,1.39,2.5,1111122 
NERRS,ioos:station:NOAA.NERRS:rkblhwq:1,2017-10-01T18:45:00Z,26.0257,-81.7332,1.24,2.9,1111122 
NERRS,ioos:station:NOAA.NERRS:rkblhwq:1,2017-10-01T19:45:00Z,26.0257,-81.7332,1.1,2.8,1111122 
NERRS,ioos:station:NOAA.NERRS:rkblhwq:1,2017-10-01T20:45:00Z,26.0257,-81.7332,0.97,3.4,1111122 
NERRS,ioos:station:NOAA.NERRS:rkblhwq:1,2017-10-01T21:45:00Z,26.0257,-81.7332,0.91,3.3,1111122 
NERRS,ioos:station:NOAA.NERRS:rkblhwq:1,2017-10-01T22:45:00Z,26.0257,-81.7332,0.96,3.7,1111122 
NERRS,ioos:station:NOAA.NERRS:rkblhwq:1,2017-10-01T23:45:00Z,26.0257,-81.7332,1.11,5.0,1111122 
NERRS,ioos:station:NOAA.NERRS:rkblhwq:1,2017-10-02T00:45:00Z,26.0257,-81.7332,1.25,4.1,1111122 
NERRS,ioos:station:NOAA.NERRS:rkblhwq:1,2017-10-02T01:45:00Z,26.0257,-81.7332,1.38,4.1,1111122 
NERRS,ioos:station:NOAA.NERRS:rkblhwq:1,2017-10-02T02:45:00Z,26.0257,-81.7332,1.51,4.2,1111122 
NERRS,ioos:station:NOAA.NERRS:rkblhwq:1,2017-10-02T03:45:00Z,26.0257,-81.7332,1.59,3.9,1111122 
NERRS,ioos:station:NOAA.NERRS:rkblhwq:1,2017-10-02T04:45:00Z,26.0257,-81.7332,1.61,2.4,1111122 
NERRS,ioos:station:NOAA.NERRS:rkblhwq:1,2017-10-02T05:45:00Z,26.0257,-81.7332,1.54,4.5,1111122 
NERRS,ioos:station:NOAA.NERRS:rkblhwq:1,2017-10-02T10:45:00Z,26.0257,-81.7332,1.17,2.3,1111122 
NERRS,ioos:station:NOAA.NERRS:rkblhwq:1,2017-10-02T11:45:00Z,26.0257,-81.7332,1.29,3.5,1111122 
NERRS,ioos:station:NOAA.NERRS:rkblhwq:1,2017-10-02T12:45:00Z,26.0257,-81.7332,1.42,3.0,1111122 
NERRS,ioos:station:NOAA.NERRS:rkblhwq:1,2017-10-02T13:45:00Z,26.0257,-81.7332,1.53,3.3,1111122 
NERRS,ioos:station:NOAA.NERRS:rkblhwq:1,2017-10-02T14:45:00Z,26.0257,-81.7332,1.62,3.4,1111122 
NERRS,ioos:station:NOAA.NERRS:rkblhwq:1,2017-10-02T15:45:00Z,26.0257,-81.7332,1.67,3.3,1111122 
NERRS,ioos:station:NOAA.NERRS:rkblhwq:1,2017-10-02T16:45:00Z,26.0257,-81.7332,1.68,3.1,1111122 
NERRS,ioos:station:NOAA.NERRS:rkblhwq:1,2017-10-02T17:45:00Z,26.0257,-81.7332,1.62,5.7,1111122 
NERRS,ioos:station:NOAA.NERRS:rkblhwq:1,2017-10-02T18:45:00Z,26.0257,-81.7332,1.49,6.0,1111122 
NERRS,ioos:station:NOAA.NERRS:rkblhwq:1,2017-10-02T19:45:00Z,26.0257,-81.7332,1.34,5.3,1111122 
NERRS,ioos:station:NOAA.NERRS:rkblhwq:1,2017-10-02T20:45:00Z,26.0257,-81.7332,1.18,4.5,1111122 
NERRS,ioos:station:NOAA.NERRS:rkblhwq:1,2017-10-02T21:45:00Z,26.0257,-81.7332,1.03,5.0,1111122 
NERRS,ioos:station:NOAA.NERRS:rkblhwq:1,2017-10-02T22:45:00Z,26.0257,-81.7332,0.94,4.3,1111122 
NERRS,ioos:station:NOAA.NERRS:rkblhwq:1,2017-10-02T23:45:00Z,26.0257,-81.7332,0.99,3.5,1111122 
NERRS,ioos:station:NOAA.NERRS:rkblhwq:1,2017-10-03T00:45:00Z,26.0257,-81.7332,1.13,3.8,1111122 
NERRS,ioos:station:NOAA.NERRS:rkblhwq:1,2017-10-03T01:45:00Z,26.0257,-81.7332,1.27,4.0,1111122 
NERRS,ioos:station:NOAA.NERRS:rkblhwq:1,2017-10-03T02:45:00Z,26.0257,-81.7332,1.41,4.4,1111122 
NERRS,ioos:station:NOAA.NERRS:rkblhwq:1,2017-10-03T03:45:00Z,26.0257,-81.7332,1.51,4.1,1111122 
NERRS,ioos:station:NOAA.NERRS:rkblhwq:1,2017-10-03T04:45:00Z,26.0257,-81.7332,1.55,3.2,1111122 
NERRS,ioos:station:NOAA.NERRS:rkblhwq:1,2017-10-03T05:45:00Z,26.0257,-81.7332,1.5,4.4,1111122 
NERRS,ioos:station:NOAA.NERRS:rkblhwq:1,2017-10-03T06:45:00Z,26.0257,-81.7332,1.38,4.7,1111122 
NERRS,ioos:station:NOAA.NERRS:rkblhwq:1,2017-10-03T07:45:00Z,26.0257,-81.7332,1.25,3.6,1111122 
NERRS,ioos:station:NOAA.NERRS:rkblhwq:1,2017-10-03T08:45:00Z,26.0257,-81.7332,1.13,3.1,1111122 
NERRS,ioos:station:NOAA.NERRS:rkblhwq:1,2017-10-03T11:45:00Z,26.0257,-81.7332,1.1,3.0,1111122 
NERRS,ioos:station:NOAA.NERRS:rkblhwq:1,2017-10-03T12:45:00Z,26.0257,-81.7332,1.24,3.7,1111122 
NERRS,ioos:station:NOAA.NERRS:rkblhwq:1,2017-10-03T13:45:00Z,26.0257,-81.7332,1.37,3.5,1111122 
NERRS,ioos:station:NOAA.NERRS:rkblhwq:1,2017-10-03T14:45:00Z,26.0257,-81.7332,1.48,3.5,1111122 
NERRS,ioos:station:NOAA.NERRS:rkblhwq:1,2017-10-03T15:45:00Z,26.0257,-81.7332,1.57,4.0,1111122 
NERRS,ioos:station:NOAA.NERRS:rkblhwq:1,2017-10-03T16:45:00Z,26.0257,-81.7332,1.61,3.2,1111122 
NERRS,ioos:station:NOAA.NERRS:rkblhwq:1,2017-10-03T17:45:00Z,26.0257,-81.7332,1.6,2.5,1111122 
NERRS,ioos:station:NOAA.NERRS:rkblhwq:1,2017-10-03T18:45:00Z,26.0257,-81.7332,1.48,6.3,1111122 
NERRS,ioos:station:NOAA.NERRS:rkblhwq:1,2017-10-03T19:45:00Z,26.0257,-81.7332,1.33,6.5,1111122 
NERRS,ioos:station:NOAA.NERRS:rkblhwq:1,2017-10-03T20:45:00Z,26.0257,-81.7332,1.16,5.8,1111122 
NERRS,ioos:station:NOAA.NERRS:rkblhwq:1,2017-10-03T21:45:00Z,26.0257,-81.7332,1.0,5.7,1111122 
NERRS,ioos:station:NOAA.NERRS:rkblhwq:1,2017-10-03T22:45:00Z,26.0257,-81.7332,0.87,5.5,1111122 
NERRS,ioos:station:NOAA.NERRS:rkblhwq:1,2017-10-03T23:45:00Z,26.0257,-81.7332,0.81,6.2,1111122 
NERRS,ioos:station:NOAA.NERRS:rkblhwq:1,2017-10-04T00:45:00Z,26.0257,-81.7332,0.88,5.1,1111122 
NERRS,ioos:station:NOAA.NERRS:rkblhwq:1,2017-10-04T01:45:00Z,26.0257,-81.7332,1.01,5.2,1111122 
NERRS,ioos:station:NOAA.NERRS:rkblhwq:1,2017-10-04T02:45:00Z,26.0257,-81.7332,1.17,5.2,1111122 
NERRS,ioos:station:NOAA.NERRS:rkblhwq:1,2017-10-04T03:45:00Z,26.0257,-81.7332,1.32,4.9,1111122 
NERRS,ioos:station:NOAA.NERRS:rkblhwq:1,2017-10-04T04:45:00Z,26.0257,-81.7332,1.42,5.0,1111122 
NERRS,ioos:station:NOAA.NERRS:rkblhwq:1,2017-10-04T05:45:00Z,26.0257,-81.7332,1.49,4.3,1111122 
NERRS,ioos:station:NOAA.NERRS:rkblhwq:1,2017-10-04T06:45:00Z,26.0257,-81.7332,1.39,5.3,1111122 
NERRS,ioos:station:NOAA.NERRS:rkblhwq:1,2017-10-04T07:45:00Z,26.0257,-81.7332,1.26,5.0,1111122 
NERRS,ioos:station:NOAA.NERRS:rkblhwq:1,2017-10-04T08:45:00Z,26.0257,-81.7332,1.11,4.8,1111122 
NERRS,ioos:station:NOAA.NERRS:rkblhwq:1,2017-10-04T10:45:00Z,26.0257,-81.7332,0.88,4.5,1111122 
NERRS,ioos:station:NOAA.NERRS:rkblhwq:1,2017-10-04T11:45:00Z,26.0257,-81.7332,0.87,3.2,1111122 
NERRS,ioos:station:NOAA.NERRS:rkblhwq:1,2017-10-04T12:45:00Z,26.0257,-81.7332,3.15,5.0,1111122 
NERRS,ioos:station:NOAA.NERRS:rkblhwq:1,2017-10-04T13:45:00Z,26.0257,-81.7332,3.6,5.5,1111122 
NERRS,ioos:station:NOAA.NERRS:rkblhwq:1,2017-10-04T14:45:00Z,26.0257,-81.7332,4.1,5.8,1111122 
NERRS,ioos:station:NOAA.NERRS:rkblhwq:1,2017-10-04T15:45:00Z,26.0257,-81.7332,4.51,6.0,1111122 
NERRS,ioos:station:NOAA.NERRS:rkblhwq:1,2017-10-04T16:45:00Z,26.0257,-81.7332,4.78,6.4,1111122 
NERRS,ioos:station:NOAA.NERRS:rkblhwq:1,2017-10-04T17:45:00Z,26.0257,-81.7332,4.94,6.5,1111122 
NERRS,ioos:station:NOAA.NERRS:rkblhwq:1,2017-10-04T18:45:00Z,26.0257,-81.7332,4.81,7.3,1111122 
NERRS,ioos:station:NOAA.NERRS:rkblhwq:1,2017-10-04T19:45:00Z,26.0257,-81.7332,4.39,7.7,1111122 
NERRS,ioos:station:NOAA.NERRS:rkblhwq:1,2017-10-04T20:45:00Z,26.0257,-81.7332,3.94,7.4,1111122 
NERRS,ioos:station:NOAA.NERRS:rkblhwq:1,2017-10-04T21:45:00Z,26.0257,-81.7332,3.48,7.5,1111122 
NERRS,ioos:station:NOAA.NERRS:rkblhwq:1,2017-10-04T22:45:00Z,26.0257,-81.7332,3.07,7.2,1111122 
NERRS,ioos:station:NOAA.NERRS:rkblhwq:1,2017-10-04T23:45:00Z,26.0257,-81.7332,2.9,7.2,1111122 
NERRS,ioos:station:NOAA.NERRS:rkblhwq:1,2017-10-05T00:45:00Z,26.0257,-81.7332,3.06,6.6,1111122 
NERRS,ioos:station:NOAA.NERRS:rkblhwq:1,2017-10-05T01:45:00Z,26.0257,-81.7332,3.54,6.7,1111122 
NERRS,ioos:station:NOAA.NERRS:rkblhwq:1,2017-10-05T02:45:00Z,26.0257,-81.7332,4.03,6.6,1111122 
NERRS,ioos:station:NOAA.NERRS:rkblhwq:1,2017-10-05T03:45:00Z,26.0257,-81.7332,4.45,6.4,1111122 
NERRS,ioos:station:NOAA.NERRS:rkblhwq:1,2017-10-05T04:45:00Z,26.0257,-81.7332,4.88,6.3,1111122 
NERRS,ioos:station:NOAA.NERRS:rkblhwq:1,2017-10-05T05:45:00Z,26.0257,-81.7332,5.15,6.1,1111122 
NERRS,ioos:station:NOAA.NERRS:rkblhwq:1,2017-10-05T06:45:00Z,26.0257,-81.7332,5.17,5.9,1111122 
NERRS,ioos:station:NOAA.NERRS:rkblhwq:1,2017-10-05T07:45:00Z,26.0257,-81.7332,4.89,5.9,1111122 
NERRS,ioos:station:NOAA.NERRS:rkblhwq:1,2017-10-05T08:45:00Z,26.0257,-81.7332,4.43,5.7,1111122 
NERRS,ioos:station:NOAA.NERRS:rkblhwq:1,2017-10-05T09:45:00Z,26.0257,-81.7332,3.91,5.6,1111122 
NERRS,ioos:station:NOAA.NERRS:rkblhwq:1,2017-10-05T10:45:00Z,26.0257,-81.7332,3.44,4.8,1111122 
NERRS,ioos:station:NOAA.NERRS:rkblhwq:1,2017-10-05T11:45:00Z,26.0257,-81.7332,3.03,4.4,1111122 
NERRS,ioos:station:NOAA.NERRS:rkblhwq:1,2017-10-05T12:45:00Z,26.0257,-81.7332,2.95,4.9,1111122 
NERRS,ioos:station:NOAA.NERRS:rkblhwq:1,2017-10-05T13:45:00Z,26.0257,-81.7332,3.37,5.2,1111122 
NERRS,ioos:station:NOAA.NERRS:rkblhwq:1,2017-10-05T14:45:00Z,26.0257,-81.7332,3.93,5.5,1111122 
NERRS,ioos:station:NOAA.NERRS:rkblhwq:1,2017-10-05T15:45:00Z,26.0257,-81.7332,4.42,5.8,1111122 
NERRS,ioos:station:NOAA.NERRS:rkblhwq:1,2017-10-05T17:45:00Z,26.0257,-81.7332,5.07,5.9,1111122 
NERRS,ioos:station:NOAA.NERRS:rkblhwq:1,2017-10-05T18:45:00Z,26.0257,-81.7332,5.23,6.0,1111122 
NERRS,ioos:station:NOAA.NERRS:rkblhwq:1,2017-10-05T19:45:00Z,26.0257,-81.7332,5.13,5.8,1111122 
NERRS,ioos:station:NOAA.NERRS:rkblhwq:1,2017-10-05T20:45:00Z,26.0257,-81.7332,4.78,6.7,1111122 
NERRS,ioos:station:NOAA.NERRS:rkblhwq:1,2017-10-05T21:45:00Z,26.0257,-81.7332,4.38,7.2,1111122 
NERRS,ioos:station:NOAA.NERRS:rkblhwq:1,2017-10-05T22:45:00Z,26.0257,-81.7332,3.88,6.0,1111122 
NERRS,ioos:station:NOAA.NERRS:rkblhwq:1,2017-10-05T23:45:00Z,26.0257,-81.7332,3.49,5.0,1111122 
NERRS,ioos:station:NOAA.NERRS:rkblhwq:1,2017-10-06T00:45:00Z,26.0257,-81.7332,3.44,5.6,1111122 
NERRS,ioos:station:NOAA.NERRS:rkblhwq:1,2017-10-06T01:45:00Z,26.0257,-81.7332,3.82,5.6,1111122 
NERRS,ioos:station:NOAA.NERRS:rkblhwq:1,2017-10-06T02:45:00Z,26.0257,-81.7332,4.37,5.6,1111122 
NERRS,ioos:station:NOAA.NERRS:rkblhwq:1,2017-10-06T03:45:00Z,26.0257,-81.7332,4.88,5.7,1111122 
NERRS,ioos:station:NOAA.NERRS:rkblhwq:1,2017-10-06T04:45:00Z,26.0257,-81.7332,5.28,5.6,1111122 
NERRS,ioos:station:NOAA.NERRS:rkblhwq:1,2017-10-06T05:45:00Z,26.0257,-81.7332,5.59,5.6,1111122 
NERRS,ioos:station:NOAA.NERRS:rkblhwq:1,2017-10-06T06:45:00Z,26.0257,-81.7332,5.8,5.5,1111122 
NERRS,ioos:station:NOAA.NERRS:rkblhwq:1,2017-10-06T07:45:00Z,26.0257,-81.7332,5.78,5.3,1111122 
NERRS,ioos:station:NOAA.NERRS:rkblhwq:1,2017-10-06T08:45:00Z,26.0257,-81.7332,5.48,5.2,1111122 
NERRS,ioos:station:NOAA.NERRS:rkblhwq:1,2017-10-06T09:45:00Z,26.0257,-81.7332,5.07,5.1,1111122 
NERRS,ioos:station:NOAA.NERRS:rkblhwq:1,2017-10-06T10:45:00Z,26.0257,-81.7332,4.54,4.7,1111122 
NERRS,ioos:station:NOAA.NERRS:rkblhwq:1,2017-10-06T11:45:00Z,26.0257,-81.7332,4.0,4.2,1111122 
NERRS,ioos:station:NOAA.NERRS:rkblhwq:1,2017-10-06T12:45:00Z,26.0257,-81.7332,3.56,4.0,1111122 
NERRS,ioos:station:NOAA.NERRS:rkblhwq:1,2017-10-06T13:45:00Z,26.0257,-81.7332,3.58,4.0,1111122 
NERRS,ioos:station:NOAA.NERRS:rkblhwq:1,2017-10-06T14:45:00Z,26.0257,-81.7332,4.18,4.7,1111122 
NERRS,ioos:station:NOAA.NERRS:rkblhwq:1,2017-10-06T15:45:00Z,26.0257,-81.7332,4.76,5.3,1111122 
NERRS,ioos:station:NOAA.NERRS:rkblhwq:1,2017-10-06T16:45:00Z,26.0257,-81.7332,5.22,5.5,1111122 
NERRS,ioos:station:NOAA.NERRS:rkblhwq:1,2017-10-06T17:45:00Z,26.0257,-81.7332,5.5,5.8,1111122 
NERRS,ioos:station:NOAA.NERRS:rkblhwq:1,2017-10-06T18:45:00Z,26.0257,-81.7332,5.71,5.8,1111122 
NERRS,ioos:station:NOAA.NERRS:rkblhwq:1,2017-10-06T19:45:00Z,26.0257,-81.7332,5.75,5.9,1111122 
NERRS,ioos:station:NOAA.NERRS:rkblhwq:1,2017-10-06T20:45:00Z,26.0257,-81.7332,5.52,5.6,1111122 
NERRS,ioos:station:NOAA.NERRS:rkblhwq:1,2017-10-06T21:45:00Z,26.0257,-81.7332,5.16,5.7,1111122 
NERRS,ioos:station:NOAA.NERRS:rkblhwq:1,2017-10-06T22:45:00Z,26.0257,-81.7332,4.75,5.3,1111122 
NERRS,ioos:station:NOAA.NERRS:rkblhwq:1,2017-10-06T23:45:00Z,26.0257,-81.7332,4.25,5.0,1111122 
NERRS,ioos:station:NOAA.NERRS:rkblhwq:1,2017-10-07T00:45:00Z,26.0257,-81.7332,3.83,5.1,1111122 
NERRS,ioos:station:NOAA.NERRS:rkblhwq:1,2017-10-07T01:45:00Z,26.0257,-81.7332,3.86,4.6,1111122 
NERRS,ioos:station:NOAA.NERRS:rkblhwq:1,2017-10-07T02:45:00Z,26.0257,-81.7332,4.41,5.3,1111122 
NERRS,ioos:station:NOAA.NERRS:rkblhwq:1,2017-10-07T03:45:00Z,26.0257,-81.7332,4.94,5.3,1111122 
NERRS,ioos:station:NOAA.NERRS:rkblhwq:1,2017-10-07T04:45:00Z,26.0257,-81.7332,5.32,5.2,1111122 
NERRS,ioos:station:NOAA.NERRS:rkblhwq:1,2017-10-07T05:45:00Z,26.0257,-81.7332,5.6,5.2,1111122 
NERRS,ioos:station:NOAA.NERRS:rkblhwq:1,2017-10-07T06:45:00Z,26.0257,-81.7332,5.84,5.2,1111122 
NERRS,ioos:station:NOAA.NERRS:rkblhwq:1,2017-10-07T07:45:00Z,26.0257,-81.7332,5.87,5.2,1111122 
NERRS,ioos:station:NOAA.NERRS:rkblhwq:1,2017-10-07T08:45:00Z,26.0257,-81.7332,5.56,4.9,1111122 
NERRS,ioos:station:NOAA.NERRS:rkblhwq:1,2017-10-07T09:45:00Z,26.0257,-81.7332,5.16,4.7,1111122 
NERRS,ioos:station:NOAA.NERRS:rkblhwq:1,2017-10-07T10:45:00Z,26.0257,-81.7332,4.67,4.3,1111122 
NERRS,ioos:station:NOAA.NERRS:rkblhwq:1,2017-10-07T11:45:00Z,26.0257,-81.7332,4.15,4.4,1111122 
NERRS,ioos:station:NOAA.NERRS:rkblhwq:1,2017-10-07T12:45:00Z,26.0257,-81.7332,3.64,4.2,1111122 
NERRS,ioos:station:NOAA.NERRS:rkblhwq:1,2017-10-07T13:45:00Z,26.0257,-81.7332,3.39,3.2,1111122 
NERRS,ioos:station:NOAA.NERRS:rkblhwq:1,2017-10-07T14:45:00Z,26.0257,-81.7332,3.83,4.2,1111122 
NERRS,ioos:station:NOAA.NERRS:rkblhwq:1,2017-10-07T15:45:00Z,26.0257,-81.7332,4.48,4.7,1111122 
NERRS,ioos:station:NOAA.NERRS:rkblhwq:1,2017-10-07T16:45:00Z,26.0257,-81.7332,5.07,5.2,1111122 
NERRS,ioos:station:NOAA.NERRS:rkblhwq:1,2017-10-07T17:45:00Z,26.0257,-81.7332,5.54,5.8,1111122 
NERRS,ioos:station:NOAA.NERRS:rkblhwq:1,2017-10-07T18:45:00Z,26.0257,-81.7332,5.88,6.0,1111122 
NERRS,ioos:station:NOAA.NERRS:rkblhwq:1,2017-10-07T19:45:00Z,26.0257,-81.7332,6.11,6.4,1111122 
NERRS,ioos:station:NOAA.NERRS:rkblhwq:1,2017-10-07T20:45:00Z,26.0257,-81.7332,6.14,6.5,1111122 
NERRS,ioos:station:NOAA.NERRS:rkblhwq:1,2017-10-07T21:45:00Z,26.0257,-81.7332,5.86,6.4,1111122 
NERRS,ioos:station:NOAA.NERRS:rkblhwq:1,2017-10-07T22:45:00Z,26.0257,-81.7332,5.54,6.2,1111122 
NERRS,ioos:station:NOAA.NERRS:rkblhwq:1,2017-10-07T23:45:00Z,26.0257,-81.7332,5.19,6.0,1111122 
NERRS,ioos:station:NOAA.NERRS:rkblhwq:1,2017-10-08T00:45:00Z,26.0257,-81.7332,4.79,5.8,1111122 
NERRS,ioos:station:NOAA.NERRS:rkblhwq:1,2017-10-08T01:45:00Z,26.0257,-81.7332,4.46,5.6,1111122 
NERRS,ioos:station:NOAA.NERRS:rkblhwq:1,2017-10-08T02:45:00Z,26.0257,-81.7332,4.54,5.3,1111122 
NERRS,ioos:station:NOAA.NERRS:rkblhwq:1,2017-10-08T03:45:00Z,26.0257,-81.7332,5.03,5.3,1111122 
NERRS,ioos:station:NOAA.NERRS:rkblhwq:1,2017-10-08T04:45:00Z,26.0257,-81.7332,5.35,5.4,1111122 
NERRS,ioos:station:NOAA.NERRS:rkblhwq:1,2017-10-08T05:45:00Z,26.0257,-81.7332,5.61,5.4,1111122 
NERRS,ioos:station:NOAA.NERRS:rkblhwq:1,2017-10-08T06:45:00Z,26.0257,-81.7332,5.78,5.3,1111122 
NERRS,ioos:station:NOAA.NERRS:rkblhwq:1,2017-10-08T07:45:00Z,26.0257,-81.7332,5.92,5.3,1111122 
NERRS,ioos:station:NOAA.NERRS:rkblhwq:1,2017-10-08T08:45:00Z,26.0257,-81.7332,5.78,4.6,1111122 
NERRS,ioos:station:NOAA.NERRS:rkblhwq:1,2017-10-08T09:45:00Z,26.0257,-81.7332,5.43,4.7,1111122 
NERRS,ioos:station:NOAA.NERRS:rkblhwq:1,2017-10-08T10:45:00Z,26.0257,-81.7332,5.01,4.5,1111122 
NERRS,ioos:station:NOAA.NERRS:rkblhwq:1,2017-10-08T11:45:00Z,26.0257,-81.7332,4.48,4.1,1111122 
NERRS,ioos:station:NOAA.NERRS:rkblhwq:1,2017-10-08T12:45:00Z,26.0257,-81.7332,3.87,3.9,1111122 
NERRS,ioos:station:NOAA.NERRS:rkblhwq:1,2017-10-08T13:45:00Z,26.0257,-81.7332,3.36,3.8,1111122 
NERRS,ioos:station:NOAA.NERRS:rkblhwq:1,2017-10-08T14:45:00Z,26.0257,-81.7332,3.07,3.3,1111122 
NERRS,ioos:station:NOAA.NERRS:rkblhwq:1,2017-10-08T15:45:00Z,26.0257,-81.7332,3.45,4.3,1111122 
NERRS,ioos:station:NOAA.NERRS:rkblhwq:1,2017-10-08T16:45:00Z,26.0257,-81.7332,4.13,4.9,1111122 
NERRS,ioos:station:NOAA.NERRS:rkblhwq:1,2017-10-08T17:45:00Z,26.0257,-81.7332,4.73,5.2,1111122 
NERRS,ioos:station:NOAA.NERRS:rkblhwq:1,2017-10-08T18:45:00Z,26.0257,-81.7332,5.23,5.5,1111122 
NERRS,ioos:station:NOAA.NERRS:rkblhwq:1,2017-10-08T19:45:00Z,26.0257,-81.7332,5.54,5.7,1111122 
NERRS,ioos:station:NOAA.NERRS:rkblhwq:1,2017-10-08T20:45:00Z,26.0257,-81.7332,5.68,6.0,1111122 
NERRS,ioos:station:NOAA.NERRS:rkblhwq:1,2017-10-08T21:45:00Z,26.0257,-81.7332,5.59,4.8,1111122 
NERRS,ioos:station:NOAA.NERRS:rkblhwq:1,2017-10-08T22:45:00Z,26.0257,-81.7332,5.31,5.2,1111122 
NERRS,ioos:station:NOAA.NERRS:rkblhwq:1,2017-10-08T23:45:00Z,26.0257,-81.7332,5.0,5.5,1111122 
NERRS,ioos:station:NOAA.NERRS:rkblhwq:1,2017-10-09T00:45:00Z,26.0257,-81.7332,4.65,5.3,1111122 
NERRS,ioos:station:NOAA.NERRS:rkblhwq:1,2017-10-09T01:45:00Z,26.0257,-81.7332,4.33,5.0,1111122 
NERRS,ioos:station:NOAA.NERRS:rkblhwq:1,2017-10-09T02:45:00Z,26.0257,-81.7332,4.19,4.3,1111122 
NERRS,ioos:station:NOAA.NERRS:rkblhwq:1,2017-10-09T03:45:00Z,26.0257,-81.7332,4.49,4.8,1111122 
NERRS,ioos:station:NOAA.NERRS:rkblhwq:1,2017-10-09T04:45:00Z,26.0257,-81.7332,4.93,5.0,1111122 
NERRS,ioos:station:NOAA.NERRS:rkblhwq:1,2017-10-09T05:45:00Z,26.0257,-81.7332,5.3,4.9,1111122 
NERRS,ioos:station:NOAA.NERRS:rkblhwq:1,2017-10-09T06:45:00Z,26.0257,-81.7332,5.55,4.8,1111122 
NERRS,ioos:station:NOAA.NERRS:rkblhwq:1,2017-10-09T07:45:00Z,26.0257,-81.7332,5.74,4.7,1111122 
NERRS,ioos:station:NOAA.NERRS:rkblhwq:1,2017-10-09T10:45:00Z,26.0257,-81.7332,5.21,4.1,1111122 
NERRS,ioos:station:NOAA.NERRS:rkblhwq:1,2017-10-09T11:45:00Z,26.0257,-81.7332,4.72,4.0,1111122 
NERRS,ioos:station:NOAA.NERRS:rkblhwq:1,2017-10-09T12:45:00Z,26.0257,-81.7332,4.13,3.8,1111122 
NERRS,ioos:station:NOAA.NERRS:rkblhwq:1,2017-10-09T13:45:00Z,26.0257,-81.7332,3.53,3.1,1111122 
NERRS,ioos:station:NOAA.NERRS:rkblhwq:1,2017-10-09T14:45:00Z,26.0257,-81.7332,3.05,3.6,1111122 
NERRS,ioos:station:NOAA.NERRS:rkblhwq:1,2017-10-09T15:45:00Z,26.0257,-81.7332,2.86,3.0,1111122 
NERRS,ioos:station:NOAA.NERRS:rkblhwq:1,2017-10-09T16:45:00Z,26.0257,-81.7332,3.24,4.3,1111122 
NERRS,ioos:station:NOAA.NERRS:rkblhwq:1,2017-10-09T17:45:00Z,26.0257,-81.7332,3.79,4.6,1111122 
NERRS,ioos:station:NOAA.NERRS:rkblhwq:1,2017-10-09T18:45:00Z,26.0257,-81.7332,4.33,5.0,1111122 
NERRS,ioos:station:NOAA.NERRS:rkblhwq:1,2017-10-09T19:45:00Z,26.0257,-81.7332,4.8,5.2,1111122 
NERRS,ioos:station:NOAA.NERRS:rkblhwq:1,2017-10-09T20:45:00Z,26.0257,-81.7332,5.14,5.1,1111122 
NERRS,ioos:station:NOAA.NERRS:rkblhwq:1,2017-10-09T21:45:00Z,26.0257,-81.7332,5.3,4.8,1111122 
NERRS,ioos:station:NOAA.NERRS:rkblhwq:1,2017-10-09T22:45:00Z,26.0257,-81.7332,5.21,4.9,1111122 
NERRS,ioos:station:NOAA.NERRS:rkblhwq:1,2017-10-09T23:45:00Z,26.0257,-81.7332,4.95,4.4,1111122 
NERRS,ioos:station:NOAA.NERRS:rkblhwq:1,2017-10-10T00:45:00Z,26.0257,-81.7332,4.65,4.6,1111122 
NERRS,ioos:station:NOAA.NERRS:rkblhwq:1,2017-10-10T01:45:00Z,26.0257,-81.7332,4.34,4.1,1111122 
NERRS,ioos:station:NOAA.NERRS:rkblhwq:1,2017-10-10T02:45:00Z,26.0257,-81.7332,4.08,4.4,1111122 
NERRS,ioos:station:NOAA.NERRS:rkblhwq:1,2017-10-10T03:45:00Z,26.0257,-81.7332,4.09,3.9,1111122 
NERRS,ioos:station:NOAA.NERRS:rkblhwq:1,2017-10-10T04:45:00Z,26.0257,-81.7332,4.4,4.6,1111122 
NERRS,ioos:station:NOAA.NERRS:rkblhwq:1,2017-10-10T05:45:00Z,26.0257,-81.7332,4.79,4.4,1111122 
NERRS,ioos:station:NOAA.NERRS:rkblhwq:1,2017-10-10T06:45:00Z,26.0257,-81.7332,5.09,4.3,1111122 
NERRS,ioos:station:NOAA.NERRS:rkblhwq:1,2017-10-10T07:45:00Z,26.0257,-81.7332,5.24,4.3,1111122 
NERRS,ioos:station:NOAA.NERRS:rkblhwq:1,2017-10-10T08:45:00Z,26.0257,-81.7332,5.34,4.0,1111122 
NERRS,ioos:station:NOAA.NERRS:rkblhwq:1,2017-10-10T09:45:00Z,26.0257,-81.7332,5.26,3.6,1111122 
NERRS,ioos:station:NOAA.NERRS:rkblhwq:1,2017-10-10T10:45:00Z,26.0257,-81.7332,5.0,3.6,1111122 
NERRS,ioos:station:NOAA.NERRS:rkblhwq:1,2017-10-10T11:45:00Z,26.0257,-81.7332,4.6,3.8,1111122 
NERRS,ioos:station:NOAA.NERRS:rkblhwq:1,2017-10-10T12:45:00Z,26.0257,-81.7332,4.09,3.7,1111122 
NERRS,ioos:station:NOAA.NERRS:rkblhwq:1,2017-10-10T13:45:00Z,26.0257,-81.7332,3.58,2.2,1111122 
NERRS,ioos:station:NOAA.NERRS:rkblhwq:1,2017-10-10T14:45:00Z,26.0257,-81.7332,3.11,2.3,1111122 
NERRS,ioos:station:NOAA.NERRS:rkblhwq:1,2017-10-10T15:45:00Z,26.0257,-81.7332,2.73,3.4,1111122 
NERRS,ioos:station:NOAA.NERRS:rkblhwq:1,2017-10-10T16:45:00Z,26.0257,-81.7332,2.66,3.0,1111122 
NERRS,ioos:station:NOAA.NERRS:rkblhwq:1,2017-10-10T17:45:00Z,26.0257,-81.7332,3.01,5.1,1111122 
NERRS,ioos:station:NOAA.NERRS:rkblhwq:1,2017-10-10T18:45:00Z,26.0257,-81.7332,3.5,5.5,1111122 
NERRS,ioos:station:NOAA.NERRS:rkblhwq:1,2017-10-10T19:45:00Z,26.0257,-81.7332,3.99,5.6,1111122 
NERRS,ioos:station:NOAA.NERRS:rkblhwq:1,2017-10-10T20:45:00Z,26.0257,-81.7332,4.46,5.8,1111122 
NERRS,ioos:station:NOAA.NERRS:rkblhwq:1,2017-10-10T21:45:00Z,26.0257,-81.7332,4.83,5.4,1111122 
NERRS,ioos:station:NOAA.NERRS:rkblhwq:1,2017-10-10T22:45:00Z,26.0257,-81.7332,5.04,5.1,1111122 
NERRS,ioos:station:NOAA.NERRS:rkblhwq:1,2017-10-10T23:45:00Z,26.0257,-81.7332,5.0,5.8,1111122 
NERRS,ioos:station:NOAA.NERRS:rkblhwq:1,2017-10-11T00:45:00Z,26.0257,-81.7332,4.74,5.7,1111122 
NERRS,ioos:station:NOAA.NERRS:rkblhwq:1,2017-10-11T01:45:00Z,26.0257,-81.7332,4.47,5.3,1111122 
NERRS,ioos:station:NOAA.NERRS:rkblhwq:1,2017-10-11T02:45:00Z,26.0257,-81.7332,4.24,5.4,1111122 
NERRS,ioos:station:NOAA.NERRS:rkblhwq:1,2017-10-11T03:45:00Z,26.0257,-81.7332,4.04,5.4,1111122 
NERRS,ioos:station:NOAA.NERRS:rkblhwq:1,2017-10-11T04:45:00Z,26.0257,-81.7332,4.09,3.3,1111122 
NERRS,ioos:station:NOAA.NERRS:rkblhwq:1,2017-10-11T05:45:00Z,26.0257,-81.7332,4.33,4.7,1111122 
NERRS,ioos:station:NOAA.NERRS:rkblhwq:1,2017-10-11T06:45:00Z,26.0257,-81.7332,4.66,5.1,1111122 
NERRS,ioos:station:NOAA.NERRS:rkblhwq:1,2017-10-11T07:45:00Z,26.0257,-81.7332,4.93,4.2,1111122 
NERRS,ioos:station:NOAA.NERRS:rkblhwq:1,2017-10-11T08:45:00Z,26.0257,-81.7332,5.11,4.4,1111122 
NERRS,ioos:station:NOAA.NERRS:rkblhwq:1,2017-10-11T09:45:00Z,26.0257,-81.7332,5.16,3.5,1111122 
NERRS,ioos:station:NOAA.NERRS:rkblhwq:1,2017-10-11T10:45:00Z,26.0257,-81.7332,5.1,3.3,1111122 
NERRS,ioos:station:NOAA.NERRS:rkblhwq:1,2017-10-11T11:45:00Z,26.0257,-81.7332,4.8,4.5,1111122 
NERRS,ioos:station:NOAA.NERRS:rkblhwq:1,2017-10-11T12:45:00Z,26.0257,-81.7332,4.37,4.1,1111122 
NERRS,ioos:station:NOAA.NERRS:rkblhwq:1,2017-10-11T13:45:00Z,26.0257,-81.7332,3.86,3.6,1111122 
NERRS,ioos:station:NOAA.NERRS:rkblhwq:1,2017-10-11T14:45:00Z,26.0257,-81.7332,3.39,3.5,1111122 
NERRS,ioos:station:NOAA.NERRS:rkblhwq:1,2017-10-11T15:45:00Z,26.0257,-81.7332,2.94,4.6,1111122 
NERRS,ioos:station:NOAA.NERRS:rkblhwq:1,2017-10-11T16:45:00Z,26.0257,-81.7332,2.55,4.4,1111122 
NERRS,ioos:station:NOAA.NERRS:rkblhwq:1,2017-10-11T17:45:00Z,26.0257,-81.7332,2.42,4.1,1111122 
NERRS,ioos:station:NOAA.NERRS:rkblhwq:1,2017-10-11T18:45:00Z,26.0257,-81.7332,2.71,6.0,1111122 